[[{"header":{"parameterUnit":"m.s-1","parameterCategory":1,"la1":30.2991,"la2":30.254,"lo1":-89.0895,"lo2":-89.0444,"dy":0.0017,"dx":0.0017,"nx":28,"ny":28,"refTime":"2025-03-24T21:00:00:Z","depth":0,"parameterNumber":2,"parameterNumberName":"U-component_of_WINDS"},"data":[0,0,0,0,0,0,0,0,0,0,0,0,0,0,0,0,0,0,0,0,0,0,0,0,0,0,0,0,0,0,0,0,0,0,0,0,0,0,0,0,0,0,0,0,0,0,0,0,0,0,0,0,0,0,0,0,0,0,2.5938,2.594,0,2.6136,2.6138,2.614,2.6189,2.6188,2.6186,2.6185,2.6388,2.6395,2.6401,0,0,0,0,0,0,0,0,0,0,0,0,0,2.5601,2.5607,2.5938,2.594,2.5943,2.6136,2.6138,2.6141,2.6189,2.6188,2.6186,2.6185,2.6386,2.6394,2.6402,0,0,0,0,0,0,0,0,0,0,0,0,0,2.5768,2.5609,2.5937,2.599,2.5997,2.6135,2.6138,2.6142,2.619,2.6188,2.6186,2.6184,2.6383,2.6393,2.6403,2.6503,0,0,2.6433,2.6437,0,0,0,0,0,0,0,0,2.5759,2.578,2.598,2.5987,2.5994,2.6136,2.6094,2.6263,2.619,2.6116,2.6185,2.6183,2.6306,2.6322,2.6363,2.6512,2.6521,2.6434,2.644,2.6444,2.6447,0,0,0,0,0,0,0,2.5747,2.5772,2.6016,2.5982,2.5991,2.6004,2.6025,2.6126,2.6219,2.6123,2.6127,2.6149,2.6309,2.6354,2.6368,2.6524,2.6434,2.6442,2.6449,2.6452,2.6766,2.6768,0,0,0,0,0,0,2.5726,2.5762,2.601,2.6022,2.5869,2.6011,2.6036,2.6092,2.6219,2.6236,2.6151,2.6151,2.6338,2.6357,2.6376,2.6501,2.6444,2.6453,2.6459,2.6763,2.6766,2.6769,0,0,0,0,0,0,2.5719,2.5748,2.6002,2.5893,2.5927,2.6019,2.6083,2.6097,2.6142,2.624,2.6257,2.6179,2.6337,2.6362,2.6471,2.6509,2.6458,2.6467,2.6761,2.6764,2.6768,2.6752,0,0,0,0,0,0,2.5709,2.5745,2.5784,2.5894,2.5932,2.6093,2.6085,2.6103,2.6159,2.6161,2.6271,2.6287,2.6337,2.6456,2.6481,2.6522,2.6475,2.6758,2.6762,2.6766,2.675,2.6755,2.6759,0,0,0,0,0,2.5697,2.5771,2.5785,2.5815,2.5983,2.6095,2.6117,2.6174,2.6161,2.6201,2.6265,2.6284,2.6501,2.6467,2.6495,2.6539,2.6755,2.6761,2.6766,2.6748,2.6754,2.6759,0,0,0,0,0,0,2.5663,2.5787,2.5803,2.5916,2.5995,2.6103,2.6155,2.6178,2.6262,2.626,2.6327,2.6351,2.6456,2.6509,2.6469,2.6643,2.6628,2.6639,2.6604,2.6611,2.6616,2.66,2.6483,0,0,0,0,0,2.5668,2.5749,2.5854,2.5943,2.5982,2.6061,2.6113,2.6149,2.6234,2.6267,2.6339,2.642,2.6507,2.6562,2.6647,2.6758,2.6783,2.6803,2.6808,2.6811,2.682,2.6883,2.6893,2.6786,2.6786,2.6786,0,0,2.568,2.5758,2.5805,2.5938,2.6003,2.6086,2.6089,2.6176,2.6238,2.6281,2.6388,2.6443,2.6538,2.6649,2.6701,2.6696,2.6855,2.6818,2.682,2.6827,2.6889,2.6899,2.6908,2.679,2.6789,2.6789,0,0,2.5745,2.5812,2.5894,2.5959,2.6059,2.6112,2.6131,2.6237,2.6275,2.6384,2.6417,2.6493,2.6641,2.6707,2.676,2.6851,2.6872,2.6877,2.6901,2.6962,2.697,2.6978,2.701,2.702,2.6886,2.6886,2.6886,0,2.5747,2.5873,2.5932,2.6019,2.6076,2.6119,2.6202,2.6263,2.6385,2.6423,2.6416,2.6603,2.667,2.6797,2.6819,2.6861,2.6885,2.6864,2.6964,2.6972,2.6981,2.7012,2.7024,2.6886,2.6886,2.6886,2.6886,0,2.5871,2.5958,2.6012,2.6129,2.6192,2.6276,2.6349,2.6406,2.6438,2.6492,2.6602,2.6685,2.6787,2.6821,2.6852,2.6952,2.6946,2.6951,2.6937,2.699,2.702,2.7032,2.6885,2.6885,2.6885,2.6886,0,0,2.5917,2.6067,2.6086,2.6139,2.6253,2.6321,2.6408,2.6508,2.6556,2.6639,2.6713,2.6838,2.6844,2.6904,2.6944,2.6997,2.7064,2.6996,2.6999,2.7005,2.7179,2.7173,2.7186,2.7079,2.7081,2.7083,2.717,0,2.5994,2.615,2.6207,2.6335,2.6416,2.6458,2.6534,2.6612,2.6665,2.6741,2.68,2.6887,2.6888,2.6925,2.698,2.7044,2.7099,2.7038,2.7148,2.7151,2.7121,2.7202,2.7197,2.7274,2.7183,2.7185,2.7186,0,2.6105,2.619,2.6325,2.6429,2.6466,2.6532,2.6629,2.6703,2.6792,2.6827,2.6895,2.6931,2.7024,2.7005,2.7134,2.7091,2.714,2.7178,2.7183,2.7194,2.717,2.7214,2.7301,2.7312,2.7206,2.7204,2.7203,0,2.6124,2.6272,2.6373,2.6418,2.6542,2.6587,2.6641,2.6729,2.6786,2.6872,2.6909,2.7004,2.7056,2.7129,2.719,2.7171,2.7313,2.7299,2.7344,2.7343,2.7371,2.7368,2.7465,2.7404,2.7404,2.7404,2.7403,0,2.6204,2.6285,2.6383,2.6445,2.6537,2.6602,2.6692,2.6749,2.6827,2.69,2.6944,2.7012,2.7089,2.7168,2.7217,2.7315,2.7339,2.7369,2.7381,2.7365,2.7361,2.7396,2.7392,2.7407,2.7406,2.7405,2.7405,0,2.624,2.6309,2.6421,2.653,2.6559,2.6622,2.6715,2.6777,2.6833,2.6925,2.6951,2.7038,2.7133,2.7202,2.7324,2.7357,2.7462,2.7475,2.7432,2.7437,2.7478,2.7472,2.76,2.762,2.7546,2.7547,2.7548,0,2.6285,2.6349,2.6464,2.6517,2.657,2.6654,2.6713,2.678,2.684,2.6947,2.6996,2.7094,2.7175,2.7325,2.7399,2.7493,2.7507,2.7546,2.7522,2.7503,2.7507,2.7502,2.7508,2.7548,2.7549,2.7549,2.7549,0,2.6358,2.6389,2.6472,2.6568,2.6637,2.6715,2.6794,2.6835,2.6916,2.6981,2.7078,2.7141,2.7267,2.7363,2.7465,2.7521,2.7549,2.7557,2.7572,2.7555,2.7527,2.7542,2.744,2.7553,2.7553,2.7552,2.7552,2.7552,2.64,2.6458,2.6549,2.664,2.6707,2.678,2.6843,2.6907,2.6989,2.7096,2.7132,2.7232,2.7321,2.7461,2.7518,2.7598,2.7597,2.7619,2.7624,2.7628,2.7627,2.7516,2.7617,2.7617,2.7617,2.7617,2.7617,0,2.6474,2.6535,2.6618,2.6727,2.6799,2.6821,2.6909,2.6968,2.7056,2.7137,2.7217,2.7329,2.7423,2.7505,2.7603,2.7651,2.7667,2.7675,2.7671,2.7683,2.7623,2.7599,2.766,2.766,2.766,2.766,2.766,2.766,2.6521,2.6621,2.6663,2.6797,2.6858,2.6957,2.7005,2.7073,2.7138,2.7261,2.734,2.7393,2.7475,2.7579,2.7667,2.7689,2.7722,2.7727,2.7751,2.7693,2.7688,2.7682,2.7661,2.7734,2.7734,2.7806,2.7806,2.7807]},{"header":{"parameterUnit":"m.s-1","parameterCategory":1,"la1":30.2991,"la2":30.254,"lo1":-89.0895,"lo2":-89.0444,"dy":0.0017,"dx":0.0017,"nx":28,"ny":28,"refTime":"2025-03-24T21:00:00:Z","depth":0,"parameterNumber":3,"parameterNumberName":"V-component_of_WINDS"},"data":[0,0,0,0,0,0,0,0,0,0,0,0,0,0,0,0,0,0,0,0,0,0,0,0,0,0,0,0,0,0,0,0,0,0,0,0,0,0,0,0,0,0,0,0,0,0,0,0,0,0,0,0,0,0,0,0,0,0,0.727,0.7269,0,0.7202,0.7201,0.72,0.7172,0.7172,0.7172,0.7173,0.7101,0.7099,0.7097,0,0,0,0,0,0,0,0,0,0,0,0,0,0.7375,0.7373,0.727,0.7269,0.7269,0.7202,0.7201,0.72,0.7172,0.7172,0.7172,0.7173,0.7102,0.71,0.7097,0,0,0,0,0,0,0,0,0,0,0,0,0,0.732,0.7373,0.727,0.7247,0.7244,0.7202,0.7201,0.72,0.7172,0.7172,0.7172,0.7173,0.7103,0.71,0.7097,0.7073,0,0,0.7087,0.7086,0,0,0,0,0,0,0,0,0.7323,0.7317,0.7251,0.7248,0.7245,0.7196,0.7212,0.7157,0.7172,0.7199,0.7173,0.7173,0.7132,0.7127,0.7114,0.707,0.7067,0.7087,0.7085,0.7084,0.7083,0,0,0,0,0,0,0,0.7327,0.7319,0.7243,0.725,0.7246,0.7239,0.7231,0.7201,0.7165,0.7197,0.7195,0.7187,0.7131,0.7117,0.7112,0.7066,0.7087,0.7085,0.7083,0.7081,0.6999,0.6998,0,0,0,0,0,0,0.7335,0.7323,0.7245,0.7241,0.7286,0.7237,0.7228,0.7211,0.7166,0.7159,0.7187,0.7186,0.7122,0.7115,0.7109,0.7078,0.7084,0.7081,0.7079,0.6999,0.6998,0.6998,0,0,0,0,0,0,0.7338,0.7329,0.7248,0.7281,0.727,0.7235,0.7216,0.721,0.7196,0.7158,0.7151,0.7179,0.7122,0.7113,0.7082,0.7075,0.708,0.7077,0.6999,0.6999,0.6998,0.7016,0,0,0,0,0,0,0.7341,0.733,0.7321,0.7281,0.7269,0.7223,0.7215,0.7208,0.719,0.7189,0.7149,0.7143,0.7121,0.7087,0.7079,0.7071,0.7075,0.7,0.6999,0.6998,0.7016,0.7017,0.7017,0,0,0,0,0,0.7345,0.7329,0.7321,0.7311,0.7257,0.7223,0.7216,0.7192,0.719,0.7181,0.7156,0.7144,0.7077,0.7084,0.7075,0.7066,0.7,0.6999,0.6998,0.7016,0.7017,0.7017,0,0,0,0,0,0,0.7368,0.7323,0.7314,0.7285,0.7258,0.7218,0.7206,0.7193,0.7166,0.7165,0.7136,0.7127,0.7098,0.7079,0.7087,0.704,0.7038,0.7035,0.7054,0.7054,0.7054,0.706,0.7072,0,0,0,0,0,0.737,0.7347,0.7308,0.7286,0.7273,0.7242,0.7226,0.721,0.718,0.7169,0.7142,0.7114,0.7087,0.7069,0.7042,0.7013,0.7004,0.7002,0.7003,0.7003,0.7001,0.6984,0.6982,0.6995,0.6995,0.6995,0,0,0.7374,0.7346,0.7333,0.729,0.7267,0.7243,0.7232,0.7207,0.7188,0.7165,0.7134,0.7113,0.708,0.705,0.7035,0.7033,0.6995,0.7002,0.7003,0.7,0.6983,0.6981,0.698,0.6995,0.6995,0.6995,0,0,0.7368,0.7345,0.7324,0.7301,0.7267,0.7246,0.7241,0.7203,0.7188,0.7157,0.7138,0.7115,0.7069,0.7046,0.7028,0.7012,0.6999,0.7004,0.7005,0.6988,0.6987,0.6986,0.698,0.6978,0.7002,0.7002,0.7002,0,0.7377,0.734,0.7314,0.729,0.7271,0.7249,0.7227,0.7206,0.7164,0.7152,0.715,0.709,0.7066,0.703,0.7026,0.7012,0.7005,0.7008,0.6989,0.6988,0.6987,0.6981,0.6978,0.7003,0.7003,0.7002,0.7002,0,0.7352,0.7326,0.7313,0.7274,0.7254,0.723,0.7201,0.7183,0.7169,0.7148,0.7115,0.7085,0.7051,0.7042,0.7027,0.7003,0.7002,0.6995,0.6992,0.6987,0.698,0.6978,0.7004,0.7003,0.7003,0.7003,0,0,0.736,0.7306,0.7302,0.7283,0.7243,0.7223,0.7198,0.7165,0.715,0.7122,0.71,0.7061,0.7054,0.7034,0.7016,0.7001,0.699,0.6996,0.6994,0.6995,0.6961,0.6966,0.6964,0.6981,0.698,0.698,0.6963,0,0.7348,0.7304,0.728,0.7245,0.7221,0.7199,0.7177,0.715,0.7129,0.7105,0.7082,0.7055,0.7048,0.7035,0.702,0.6995,0.6982,0.6995,0.696,0.6959,0.6969,0.6961,0.6967,0.6952,0.6961,0.696,0.696,0,0.7329,0.7301,0.7264,0.7226,0.7215,0.7196,0.7164,0.7141,0.7109,0.7095,0.7072,0.7055,0.7027,0.7026,0.6987,0.6996,0.698,0.6965,0.6964,0.696,0.6959,0.6956,0.6947,0.6945,0.6956,0.6956,0.6957,0,0.7338,0.7291,0.7263,0.7248,0.7203,0.719,0.7171,0.7139,0.7121,0.7092,0.7079,0.7048,0.703,0.7006,0.698,0.6981,0.6943,0.694,0.693,0.6931,0.6923,0.6924,0.6912,0.6913,0.6913,0.6913,0.6913,0,0.7328,0.7306,0.7266,0.7249,0.7223,0.7196,0.7171,0.715,0.7122,0.7099,0.7078,0.7057,0.7024,0.6999,0.6978,0.6949,0.6941,0.6929,0.6923,0.693,0.6932,0.692,0.692,0.6912,0.6913,0.6913,0.6913,0,0.7334,0.7306,0.7274,0.7234,0.7223,0.7206,0.7172,0.7154,0.7132,0.7103,0.7095,0.7061,0.703,0.7001,0.696,0.6946,0.6916,0.691,0.6927,0.6924,0.6916,0.6918,0.6896,0.6891,0.6896,0.6896,0.6896,0,0.7329,0.7311,0.727,0.7253,0.7234,0.7208,0.7189,0.7161,0.7141,0.7103,0.709,0.7057,0.703,0.6982,0.6952,0.6921,0.6913,0.6907,0.6908,0.6915,0.6912,0.6914,0.6912,0.6908,0.6908,0.6908,0.6908,0,0.7323,0.731,0.7284,0.7252,0.723,0.7204,0.7176,0.7164,0.713,0.711,0.7078,0.7057,0.7015,0.6983,0.6947,0.6927,0.6911,0.6908,0.6904,0.6911,0.6922,0.6916,0.6928,0.6909,0.6909,0.6909,0.6909,0.6909,0.7323,0.7306,0.7274,0.7245,0.7222,0.7197,0.7178,0.7153,0.7126,0.709,0.7075,0.7043,0.701,0.6961,0.6941,0.6915,0.6911,0.6906,0.6904,0.6903,0.6905,0.6926,0.6908,0.6908,0.6908,0.6908,0.6908,0,0.7316,0.7294,0.7268,0.723,0.7207,0.7195,0.7164,0.7146,0.7118,0.7089,0.7062,0.7026,0.6994,0.6962,0.6929,0.6914,0.6906,0.6906,0.6907,0.6902,0.691,0.6916,0.6913,0.6913,0.6913,0.6913,0.6913,0.6913,0.731,0.7281,0.7264,0.7223,0.72,0.7169,0.7152,0.7129,0.7106,0.7066,0.704,0.7019,0.6989,0.6953,0.6923,0.6915,0.6903,0.6905,0.6895,0.6902,0.6902,0.6902,0.6908,0.6903,0.6903,0.6889,0.6889,0.6889]}]]